User: anonymous   Login
Location: Prague
(50.0830°N, 14.4670°E)
Time: 22:43:35
(UTC+01:00)
Language:

DOVE 4 - Orbit

View from above orbital plane
View from above orbital plane
View from above satellite
View from above satellite

Ground track
Ground track

The orbit data is extracted from the following two-line orbital elements,

1 39430U 13066Q   21335.51861024  .00000534  00000-0  10518-3 0  9996
2 39430  97.8135 248.9853 0149384 309.1137  49.6867 14.59758637427419
Epoch (UTC): 01 December 2021 12:26:47
Eccentricity: 0.0149384
inclination: 97.8135°
perigee height: 588 km
apogee height: 799 km
right ascension of ascending node: 248.9853°
argument of perigee: 309.1137°
revolutions per day: 14.59758637
mean anomaly at epoch: 49.6867°
orbit number at epoch: 42741

The dashed part of the orbit path shows where the satellite is in the earth's shadow,  

DLR